Content
SEND FEEDBACK

Daily
Averages
Monthly
Summary
United States of America

NEW YORK - CENTRAL PARK, NEW YORK


Home > North America > United States > New York
Elevation: 14 feet     Latitude: 40 47N     Longitude: 073 58W

WEATHER
 
SELECT A DAY
Number of Records: 148,109;   Date Range: 11/1/95 - 7/29/14
 
SHARE

PRINT THIS DATA

[ ← Previous Day ]
WEATHER ALMANAC - NOVEMBER 4, 2013
[ Next Day → ]
[ °C ]   °F
Weather ElementAverageHighLow
Temperature40.4 °F46 °F (12:51 pm)35.1 °F (4:51 am)
Dewpoint16 °F23 °F (10:51 pm)12 °F (10:51 am)
Humidity37.8 %49 % (10:51 pm)28 % (11:51 am)
Barometer30.61 in30.66 in (8:51 pm)30.50 in (1:51 am)
Wind Speed6.4 mph13.8 mph (6:51 am)
Wind Gust23 mph (4:51 am)
Weather ElementAverage
Visibility10 mi
Wind DirectionNNE (38.3 °)

Weather ElementTotal
Precipitation---
Heating Degree Days24.5 (Base 65)
Averaged from 23 records on November 4, 2013
WEATHER CONDITIONS BREAKOUT
WIND DIRECTION BREAKOUT
WEATHER BY HOUR - NOVEMBER 4, 2013
[ °C ]   °F
Local TimeTemperatureDewpointHumidityBarometerVisibilityWind DirectionWind SpeedGust SpeedPrecipitationEventsConditions
1:51 AM36.0 °F14.0 °F41 %30.50 in10.0 miENE (60°)10.4 mph18.4 mphClear
2:51 AM36.0 °F17.1 °F46 %30.51 in10.0 miNNE (20°)8.1 mphClear
3:51 AM36.0 °F17.1 °F46 %30.52 in10.0 miNNE (30°)8.1 mph18.4 mphClear
4:51 AM35.1 °F14.0 °F42 %30.55 in10.0 miVariable6.9 mph23.0 mphClear
5:51 AM35.1 °F15.1 °F44 %30.56 in10.0 miNE (50°)10.4 mph18.4 mphClear
6:51 AM35.1 °F14.0 °F42 %30.58 in10.0 miNE (40°)13.8 mph23.0 mphClear
7:51 AM36.0 °F14.0 °F41 %30.60 in10.0 miENE (60°)9.2 mph23.0 mphClear
8:51 AM37.0 °F14.0 °F39 %30.62 in10.0 miVariable6.9 mph17.3 mphClear
9:51 AM39.9 °F14.0 °F35 %30.63 in10.0 miNE (50°)10.4 mphClear
10:51 AM42.1 °F12.0 °F29 %30.63 in10.0 miEast (100°)4.6 mphClear
11:51 AM44.1 °F12.9 °F28 %30.61 in10.0 miENE (60°)5.8 mphClear
12:51 PM46.0 °F15.1 °F29 %30.61 in10.0 miVariable5.8 mphClear
1:51 PM44.1 °F14.0 °F30 %30.60 in10.0 miVariable6.9 mphClear
2:51 PM45.0 °F15.1 °F30 %30.61 in10.0 miVariable3.5 mphClear
3:51 PM44.1 °F17.1 °F34 %30.62 in10.0 miCalmClear
4:51 PM42.1 °F18.0 °F38 %30.63 in10.0 miENE (60°)4.6 mphClear
5:51 PM42.1 °F16.0 °F35 %30.64 in10.0 miVariable5.8 mphClear
6:51 PM42.1 °F14.0 °F32 %30.64 in10.0 miSSE (150°)5.8 mphClear
7:51 PM42.1 °F17.1 °F37 %30.64 in10.0 miVariable4.6 mphClear
8:51 PM42.1 °F18.0 °F38 %30.66 in10.0 miVariable4.6 mphClear
9:51 PM43.0 °F19.0 °F38 %30.66 in10.0 miSE (130°)6.9 mphClear
10:51 PM41.0 °F23.0 °F49 %30.66 in10.0 miCalmClear
11:51 PM42.1 °F23.0 °F47 %30.65 in10.0 miENE (70°)4.6 mphClear
Hourly data recorded from KNYC, located miles away from New York - Central Park, New York







STORIES FROM OUR PARTNERS